Skip Page Navigation
NASA JPL Caltech
NASA Logo - Jet Propulsion Laboratory + View the NASA Portal
+ Near-Earth Object (NEO) Program
Search JPL
JPL Home Earth Solar System Stars & Galaxies Technology
JPL Solar System Dynamics
BODIES ORBITS EPHEMERIDES TOOLS PHYSICAL DATA DISCOVERY FAQ SITE MAP
JPL Small-Body Database Browser
Search: [ help ]  
4540 Oriani (1988 VY1)
Classification: Main-belt Asteroid          SPK-ID: 2004540
Ephemeris | Orbit Diagram | Orbital Elements | Physical Parameters | Discovery Circumstances ]

[ hide orbit diagram ]
Orbit Diagram
Note: Make sure you have Java enabled on your browser to see the applet. This applet is provided as a 3D orbit visualization tool. The applet was implemented using 2-body methods, and hence should not be used for determining accurate long-term trajectories (over several years or decades) or planetary encounter circumstances. For accurate long-term ephemerides, please instead use our Horizons system.
Orbit Viewer

Additional Notes: the orbits shown in the applet are color coded. The planets are white lines, and the asteroid/comet is a blue line. The bright white line indicates the portion of the orbit that is above the ecliptic plane, and the darker portion is below the ecliptic plane. Likewise for the asteroid/comet orbit, the light blue indicates the portion above the ecliptic plane, and the dark blue the portion below the ecliptic plane.

Orbit Viewer applet originally written and kindly provided by Osamu Ajiki (AstroArts), and further modified by Ron Baalke (JPL).


Orbital Elements at Epoch 2456400.5 (2013-Apr-18.0) TDB
Reference: MPO250250 (heliocentric ecliptic J2000)
 Element Value Uncertainty (1-sigma)   Units 
e 0.1758254 n/a  
a 2.6675381 n/a AU
q 2.1985171 n/a AU
i 6.35154 n/a deg
node 246.63091 n/a deg
peri 260.96421 n/a deg
M 137.98265 n/a deg
tp 2455790.5610595
(2011-Aug-17.06105950)
n/a JED
period 1591.3451335
4.36
n/a
n/a
d
yr
n 0.22622371 n/a deg/d
Q 3.1365591 n/a AU
  Orbit Determination Parameters
   # obs. used (total)      1023  
   first obs. used      1962-??-??  
   last obs. used      2012-09-12  
   # oppositions      19  
   planetary ephem.      DE403  
   condition code      0  
   fit RMS      0.52  
   data source      MPC:mpn  
   producer      MPCLINUX  

Additional Information
 T_jup = 3.352 

Ephemeris | Orbit Diagram | Orbital Elements | Physical Parameters | Discovery Circumstances ]

Physical Parameter Table
Parameter Symbol Value Units Sigma Reference Notes
absolute magnitude H 12.1 mag n/a PDS3 (MPC 28112)  
diameter diameter 16.5 km n/a DASTCOM value unverified
geometric albedo albedo 0.1129   0.036 EAR-A-5-DDR-ALBEDOS-V1.0:IMPS IMPS quality code 2: from the PDS IMPS singleton file

4540 Oriani (1988 VY1)          Discovered 1988-Nov-06 by Oss. San Vittore at Bologna
Reference: DISCOVERY.DBLast Updated: 2003-08-29

Alternate Designations
 1988 VY1 = 1962 XE1 = 1968 DF = 1975 WL = 1977 FH3 
Ephemeris | Orbit Diagram | Orbital Elements | Physical Parameters | Discovery Circumstances ]
ABOUT SSD CREDITS/AWARDS PRIVACY/COPYRIGHT GLOSSARY LINKS
FirstGov 2013-May-18 17:49 UT
(server date/time)  
NASA Home Page
Site Manager:   Donald K. Yeomans
Webmaster  Alan B. Chamberlin